Kailua Kona, HI

1:33 PM HST on August 25, 2016 (GMT -1000)
Kona International At Keahole

Weather History for PHKO - December, 2013

Change the Weather History Date:

Monday, December 9, 2013

  Actual Average Record
Temperature  
Mean Temperature 78 °F -  
Max Temperature 82 °F 80 °F 88 °F (1989)
Min Temperature 75 °F 68 °F 65 °F (1986)
Cooling Degree Days 14    
Growing Degree Days 28 (Base 50)    
Moisture  
Dew Point 71 °F    
Average Humidity 75    
Maximum Humidity 84    
Minimum Humidity 64    
Precipitation  
Precipitation 0.00 in - - ()
Sea Level Pressure  
Sea Level Pressure 30.01 in    
Wind  
Wind Speed 10 mph (South)    
Max Wind Speed 17 mph    
Max Gust Speed -    
Visibility 10 miles    
Events      
Averages and records for this station are not official NWS values.
T = Trace of Precipitation, MM = Missing Value Source: NWS Daily Summary

Daily Weather History Graph

Daily Weather History Graph

Search for Another Location

Airport or City:

Trip Planner

Search our weather history database for the weather conditions in past years. The results will help you decide how hot, cold, wet, or windy it might be!

Date:

Astronomy

Dec. 09, 2013 Rise Set
Actual Time 6:47 AM HST 5:45 PM HST
Civil Twilight 6:23 AM HST 6:09 PM HST
Nautical Twilight 5:56 AM HST 6:37 PM HST
Astronomical Twilight 5:29 AM HST 7:04 PM HST
Moon 12:33 PM HST (12/9) 12:04 AM HST (12/9)
Length of Visible Light 11h 46m
Length of Day
10h 58m
First Quarter, 53% of the Moon is Illuminated
Dec 9
First Quarter
Dec 16
Full
Dec 25
Last Quarter
Jan 1
New
Jan 7
First Quarter

Hourly Weather History & Observations

Time (HST) Temp. Heat Index Dew Point Humidity Pressure Visibility Wind Dir Wind Speed Gust Speed Precip Events Conditions
12:53 AM 77.0 °F - 69.1 °F 76% 29.99 in 10.0 mi SE 11.5 mph - N/A   Clear
1:53 AM 75.9 °F - 66.9 °F 74% 29.98 in 10.0 mi SE 6.9 mph - N/A   Clear
2:53 AM 75.9 °F - 69.1 °F 79% 29.96 in 10.0 mi SE 12.7 mph - N/A   Clear
3:53 AM 75.0 °F - 68.0 °F 79% 29.97 in 10.0 mi SE 9.2 mph - N/A   Clear
4:53 AM 75.0 °F - 66.9 °F 76% 29.99 in 10.0 mi SE 12.7 mph - N/A   Clear
5:53 AM 75.0 °F - 66.0 °F 73% 30.00 in 10.0 mi SE 13.8 mph - N/A   Clear
6:53 AM 75.9 °F - 63.0 °F 64% 30.01 in 10.0 mi South 10.4 mph - N/A   Clear
7:53 AM 78.1 °F - 66.0 °F 66% 30.02 in 10.0 mi SSE 16.1 mph - N/A   Clear
8:53 AM 81.0 °F 84.4 °F 70.0 °F 69% 30.05 in 10.0 mi SSE 17.3 mph - N/A   Clear
9:53 AM 82.0 °F 87.4 °F 73.0 °F 74% 30.07 in 10.0 mi South 11.5 mph - N/A   Partly Cloudy
10:23 AM 80.6 °F 84.6 °F 71.6 °F 74% 30.06 in 10.0 mi SSE 8.1 mph - N/A   Mostly Cloudy
10:53 AM 82.0 °F 87.4 °F 73.0 °F 74% 30.06 in 10.0 mi SSW 8.1 mph - N/A   Mostly Cloudy
11:53 AM 82.0 °F 87.4 °F 73.0 °F 74% 30.02 in 10.0 mi SSW 9.2 mph - N/A   Clear
12:53 PM 82.9 °F 88.8 °F 73.0 °F 72% 29.99 in 10.0 mi SSW 9.2 mph - N/A   Clear
1:44 PM 82.4 °F 88.2 °F 73.4 °F 74% 29.98 in 10.0 mi SW 10.4 mph - N/A   Mostly Cloudy
1:53 PM 82.9 °F 88.8 °F 73.0 °F 72% 29.98 in 10.0 mi WSW 9.2 mph - N/A   Mostly Cloudy
2:53 PM 82.0 °F 87.4 °F 73.0 °F 74% 29.98 in 10.0 mi West 8.1 mph - N/A   Partly Cloudy
3:53 PM 82.9 °F 89.4 °F 73.9 °F 74% 29.98 in 10.0 mi WNW 8.1 mph - N/A   Mostly Cloudy
4:51 PM 80.6 °F 85.4 °F 73.4 °F 79% 29.98 in 10.0 mi NNW 8.1 mph - N/A   Mostly Cloudy
4:53 PM 81.0 °F 86.2 °F 73.9 °F 79% 29.99 in 10.0 mi NNW 9.2 mph - N/A   Mostly Cloudy
5:02 PM 80.6 °F 85.4 °F 73.4 °F 79% 29.98 in 10.0 mi NNW 6.9 mph - N/A   Scattered Clouds
5:53 PM 80.1 °F 84.5 °F 73.9 °F 81% 30.00 in 10.0 mi NNW 6.9 mph - N/A   Partly Cloudy
6:53 PM 79.0 °F - 73.0 °F 82% 30.02 in 10.0 mi North 5.8 mph - N/A   Clear
7:53 PM 79.0 °F - 73.9 °F 84% 30.03 in 10.0 mi NNW 4.6 mph - N/A   Clear
8:53 PM 79.0 °F - 73.0 °F 82% 30.03 in 10.0 mi Calm Calm - N/A   Clear
9:53 PM 77.0 °F - 66.9 °F 71% 30.04 in 10.0 mi SE 9.2 mph - N/A   Clear
10:53 PM 77.0 °F - 68.0 °F 74% 30.03 in 10.0 mi SE 9.2 mph - N/A   Clear
11:53 PM 77.0 °F - 66.9 °F 71% 30.03 in 10.0 mi SE 6.9 mph - N/A   Clear